Погода в Дибгашах

Россия / Республика Дагестан     42°09′54″N   47°41′35″E
темп.,
°C
ветер,
м/с
пор.,
м/с
влажн.,
%
обл.,
%
осадки,
мм/ч
давл.,
гПа
погр.,
м
17 апреля, сб
сб1700:00+10юз22640 0.0 101914
03:00+10зюз32525 0.0 101919
06:00+11зюз22505 0.0 101920
09:00+17вюв333711 0.0 1018554
12:00+19в333849 0.0 1016866
15:00+19всв3241100 0.0 1016859
18:00+14св116488 0.0 101929
21:00+12зсз227026 0.0 102016
18 апреля, вс
вс1800:00+11з117495 0.0 101910
03:00+11зюз1174100 0.0 101910
06:00+11ю1174100 0.0 101913
09:00+13всв2166100 0.0 1019611
12:00+16всв3259100 0.1 10171031
15:00+15всв326241 1.4 1017863
18:00+12всв0179100 1.4 1019105
21:00+11з1184100 1.7 101913
19 апреля, пн
пн1900:00+12зсз2283100 0.7 101956
03:00+10св1191100 1.3 101911
06:00+11юз0085100 0.0 101918
09:00+14вюв2270100 0.0 1018368
12:00+18в4353100 0.0 1017909
15:00+18вюв335099 0.0 1016730
18:00+14юв226399 0.0 101777
21:00+12ююз227213 0.0 101725
20 апреля, вт
вт2000:00+11ююз2277100 0.0 101611
03:00+12ююз2268100 0.0 101511
06:00+13ю2364100 0.0 101452
09:00+18вюв335099 0.0 1012352
12:00+22вюв444441 0.0 1009599
15:00+22в344728 0.1 1007504
18:00+17юв1165100 0.0 100829
21:00+16ююз1156100 0.0 100818
21 апреля, ср
ср2100:00+14сз366898 0.1 1012135
03:00+12с2486100 0.1 101395
06:00+12с3886100 0.0 1016379
09:00+12с3585100 0.0 1018513
12:00+14ссв347493 0.1 1017823
15:00+12ссв3386100 0.3 1018602
18:00+10св129495 1.3 1019269
21:00+10в1196100 1.3 1020139